Location: Brno
(49.2000°N, 16.6330°E)
Time: 06:12:17
(UTC+02:00)

X-37B - Pass Details

Date: 19 June 2021
Orbit: 383 x 392 km, 45.0° (Epoch: 01 July)

Event Time Altitude Azimuth Distance (km) Brightness Sun altitude
Exits shadow 03:24:33 - 257° (WSW) 1,469 3.1 -10.1°
Reaches altitude 10° 03:24:44 10° 256° (WSW) 1,405 3.0 -10.1°
Maximum altitude 03:27:38 34° 189° (S) 653 1.3 -9.8°
Drops below altitude 10° 03:30:33 10° 122° (ESE) 1,407 3.5 -9.5°
Sets 03:32:43 0° 113° (ESE) 2,262 4.6 -9.3°
